Theta_e
346 346 345 345 346 346 347 348 347 348 348 348 348 347 347 347 348 348 347 346 346 346 346 346 345 346 346 346 346 346 346 345 345 346 346 346 347 347 347 347 348 348 348 348 346 346 345 345 344 344 343 341 339 337 334 332 332 333 333 334 335 335 336 336 336 337 338 338 337 336 334 333 332 332
347 347 347 346 346 346 347 347 347 347 348 347 347 346 346 347 347 347 347 346 346 347 346 346 346 346 347 346 346 346 346 346 345 346 346 346 346 346 347 347 347 348 348 348 347 348 348 348 347 346 344 342 340 337 335 333 333 332 332 332 332 333 334 334 335 336 336 335 334 334 333 333 333 332
347 347 347 346 346 346 347 347 347 347 347 347 347 346 347 347 347 347 347 347 347 346 346 346 346 347 347 347 347 347 347 347 347 346 346 346 346 346 346 347 347 348 348 348 348 349 349 349 348 348 346 342 340 337 335 334 334 334 333 332 332 331 331 332 333 334 334 333 333 333 333 333 333 332
346 347 347 347 346 346 346 347 347 347 347 347 346 346 347 347 347 348 348 348 347 346 346 346 346 346 347 347 347 347 347 347 347 347 346 346 346 346 346 346 347 348 348 348 348 349 349 349 349 348 346 343 340 338 337 336 335 335 335 334 333 332 330 330 331 332 332 332 332 332 332 332 332 331
345 346 347 347 346 346 346 346 347 347 347 346 346 347 347 347 348 348 349 348 347 346 346 346 346 346 347 348 348 347 346 346 346 346 346 346 346 346 346 346 347 347 348 348 348 348 348 348 348 346 345 344 343 342 342 341 340 338 337 335 334 333 331 330 329 330 331 332 332 332 331 331 331 331
344 346 347 347 347 347 347 346 346 346 346 346 346 346 346 347 347 348 349 349 347 346 345 345 346 346 347 347 347 347 346 346 346 346 346 346 346 346 346 347 347 347 348 348 348 348 348 348 348 346 346 346 347 347 346 346 345 344 341 339 336 335 333 331 329 330 331 332 332 332 331 331 331 332
345 345 346 347 347 348 347 347 347 346 347 346 346 346 346 347 347 347 348 349 348 347 346 345 345 346 347 346 346 346 346 346 347 347 346 346 346 347 346 347 347 347 348 348 348 349 349 349 348 347 347 347 348 348 348 348 347 347 345 342 339 336 334 333 331 330 331 332 332 332 332 332 332 332
346 345 345 346 346 347 347 347 347 347 347 346 346 345 346 346 347 347 348 348 348 347 346 346 346 347 347 346 345 345 346 346 347 347 347 347 346 347 347 347 347 347 348 348 348 349 349 349 349 349 348 348 347 347 347 347 347 347 347 345 342 338 334 333 332 332 331 332 332 333 333 332 332 333
347 346 345 345 345 346 346 346 347 347 347 346 346 345 346 346 346 347 348 348 348 347 347 346 347 347 346 346 345 345 346 347 347 347 347 347 346 346 347 347 347 347 347 347 348 348 348 348 348 349 349 349 348 347 346 347 347 347 347 347 346 343 338 335 333 333 333 333 333 333 333 333 332 332
347 347 347 345 344 344 345 345 346 347 347 347 346 345 345 346 346 347 348 348 348 347 347 347 347 347 347 347 346 345 346 346 346 346 347 347 347 347 346 346 346 346 347 347 347 347 347 347 347 348 348 349 349 348 347 347 347 347 347 348 347 347 344 341 337 334 333 333 333 333 333 333 333 333
347 347 347 346 345 345 345 346 347 347 347 348 347 345 345 345 346 346 347 348 347 347 347 346 346 346 346 347 347 346 345 345 345 345 346 347 347 347 347 346 346 346 346 346 347 347 347 348 347 348 348 348 349 349 348 348 348 348 348 348 348 348 348 347 345 343 340 338 337 336 336 335 334 334
346 346 346 346 346 346 346 346 347 347 347 347 347 346 346 345 346 346 346 346 347 347 346 345 345 345 346 348 347 347 346 345 344 344 344 345 346 347 347 346 346 346 347 347 347 347 347 347 348 348 348 348 347 348 349 349 349 349 349 348 349 349 349 349 349 349 348 346 346 345 344 343 341 339
346 346 346 345 345 346 346 346 347 347 346 346 347 347 347 347 347 347 346 347 346 346 345 345 344 346 347 348 348 347 347 346 345 344 344 344 344 345 346 347 346 346 346 347 347 347 348 348 348 348 349 348 348 347 348 348 348 348 348 348 348 348 348 348 348 349 349 349 349 349 349 348 348 347
346 346 346 346 345 346 346 346 346 345 345 345 345 346 347 347 347 347 348 348 347 347 346 345 345 347 348 348 347 347 347 346 346 346 345 344 343 344 345 346 346 346 346 346 346 346 346 348 349 349 349 349 348 348 348 348 348 348 348 348 347 346 346 345 345 346 347 348 349 349 349 348 349 349
344 344 344 345 345 345 345 346 345 345 345 345 345 345 347 347 347 348 348 348 348 348 348 347 348 348 348 347 347 347 346 346 346 346 346 345 344 342 343 345 345 346 345 345 344 343 344 345 346 347 348 348 349 349 349 348 348 348 348 347 347 347 347 346 345 345 345 346 347 347 347 347 347 348
344 344 343 343 343 344 345 345 345 345 345 344 344 344 345 346 347 348 348 348 349 349 349 349 349 348 347 347 346 345 345 345 346 346 346 346 345 343 342 344 345 346 345 345 344 343 343 343 344 345 346 347 347 347 347 347 346 346 345 344 344 345 345 346 346 346 346 346 346 346 346 346 346 346
344 344 344 344 343 342 342 344 345 345 345 344 343 343 343 345 346 347 347 347 348 348 348 349 349 348 347 347 346 345 346 346 346 346 345 345 345 344 343 343 344 345 345 345 345 345 344 344 343 343 343 343 344 344 344 344 343 343 342 342 341 341 341 342 343 344 345 345 345 346 346 346 346 346
344 344 344 345 345 344 343 343 344 344 345 346 346 345 344 344 345 345 346 347 347 347 347 348 348 348 347 347 346 345 346 346 346 345 344 344 344 344 343 344 345 346 347 347 348 348 346 345 344 343 342 342 343 343 343 342 342 342 342 341 341 340 339 339 339 340 341 341 342 342 342 342 343 344
344 344 344 345 345 346 345 344 343 344 345 346 346 346 346 345 344 345 345 346 346 346 347 347 347 347 347 347 346 346 346 346 345 344 343 344 345 346 346 346 347 348 348 349 349 348 346 345 345 344 343 343 344 343 343 343 342 342 341 340 340 339 340 340 339 339 339 339 339 339 339 339 340 340
345 345 345 345 345 346 345 344 344 344 345 346 346 346 346 345 345 345 344 345 346 346 346 346 346 345 345 345 345 346 345 344 344 343 344 344 346 347 347 348 348 348 348 348 348 348 346 345 345 345 345 345 344 343 342 342 341 341 340 340 340 340 339 339 339 339 339 339 339 339 339 339 340 340
345 345 345 345 344 344 344 344 344 344 346 346 346 345 345 345 345 345 344 343 344 345 345 345 345 344 344 344 344 344 343 343 343 345 345 345 345 346 346 347 348 348 347 347 347 347 347 346 346 346 345 344 343 342 341 340 340 340 340 339 339 338 338 339 339 339 340 339 339 339 339 339 340 340
342 343 344 344 344 344 343 343 344 345 346 346 346 345 345 345 345 345 343 343 343 344 345 346 345 345 345 345 345 345 343 344 345 346 347 346 346 346 345 345 346 346 346 345 346 347 347 346 346 345 345 344 342 341 340 340 340 340 339 337 337 336 337 338 339 340 340 339 338 338 338 338 338 338
338 340 342 343 344 345 344 345 345 346 346 346 345 345 346 346 345 344 343 343 343 344 345 346 346 346 346 346 347 347 347 347 348 348 348 347 347 347 347 346 346 346 346 345 346 347 347 347 346 345 345 345 343 341 340 340 339 337 336 334 334 334 335 336 336 336 336 336 335 336 335 335 335 335
336 337 339 341 343 344 345 346 346 346 346 346 345 346 347 347 345 343 343 344 343 343 344 344 344 344 344 344 345 346 346 346 347 348 348 348 348 347 346 346 346 347 346 345 346 347 346 346 347 346 346 346 344 341 339 337 335 334 333 333 333 333 333 333 333 332 333 333 334 335 335 335 336 337
334 334 336 338 340 342 343 344 345 345 346 346 345 345 346 345 343 344 345 346 345 344 343 343 342 343 342 342 343 344 344 343 343 344 346 347 347 345 344 345 346 347 346 346 347 348 346 346 347 346 345 344 342 339 336 335 334 333 333 332 331 330 329 331 332 332 333 334 335 336 336 337 337 338
335 334 335 337 339 341 342 343 343 343 343 345 346 345 343 342 343 344 346 347 346 345 344 344 344 343 342 342 343 343 343 342 341 342 345 346 346 345 345 346 347 347 347 348 348 347 346 346 346 344 343 342 340 338 337 336 334 332 331 329 326 325 328 332 334 334 335 335 335 336 336 336 336 336
335 334 335 336 338 340 341 342 342 342 342 344 345 344 343 343 344 345 346 346 346 345 345 344 343 342 341 342 342 342 342 342 342 344 346 347 346 344 343 344 346 346 347 347 347 346 345 344 343 342 341 340 340 339 337 335 333 331 329 327 326 328 333 336 337 336 335 335 336 336 336 335 335 335
334 333 334 335 337 339 340 341 342 342 343 344 344 344 343 343 344 346 346 345 343 344 344 344 342 341 341 342 342 342 342 342 342 344 345 345 345 344 344 344 345 346 345 345 344 343 342 342 340 339 339 340 340 340 338 336 334 333 332 332 332 334 336 337 336 336 336 337 337 336 336 335 334 336
333 333 333 335 336 337 338 339 340 341 342 343 344 344 343 343 344 345 346 345 343 343 343 343 342 342 342 342 342 342 342 343 343 343 343 343 344 345 345 345 345 344 343 343 342 341 340 340 339 338 338 339 340 340 339 338 337 337 338 338 337 337 338 338 338 337 338 338 337 335 335 335 335 337
332 332 332 333 334 334 335 337 338 339 341 342 343 344 343 342 342 343 344 345 344 343 342 342 342 342 341 342 342 342 342 342 343 343 344 344 344 344 344 344 343 342 342 341 340 339 339 338 338 339 340 340 341 340 340 340 340 340 340 341 340 339 339 339 339 339 338 337 336 335 335 336 336 336
332 332 332 333 333 333 333 335 337 338 340 341 342 343 343 342 341 341 342 344 344 344 343 342 342 342 342 343 343 342 342 342 342 342 343 344 344 343 342 341 340 340 340 339 338 338 338 339 340 341 340 341 341 340 340 340 340 340 340 341 340 340 340 340 339 339 338 337 336 335 335 335 334 336
331 331 332 332 333 334 333 334 335 336 338 339 340 341 342 342 341 341 342 343 344 344 344 343 343 343 343 343 343 344 344 343 342 342 342 342 342 341 339 338 339 339 340 339 339 340 341 342 341 341 340 341 341 340 340 340 341 341 341 341 341 340 340 340 340 339 338 338 337 335 335 334 333 335
329 329 330 331 332 333 333 333 333 333 334 336 337 339 341 342 342 342 342 342 342 343 344 344 343 342 342 342 343 344 344 344 343 342 342 341 340 339 339 339 340 341 342 342 342 342 343 342 342 342 342 342 341 341 341 341 341 341 341 341 341 340 338 338 339 338 338 338 337 335 334 333 332 333
329 329 329 329 330 331 331 332 331 331 332 332 333 336 339 341 342 342 342 342 343 344 345 344 343 343 343 343 342 343 344 343 342 341 340 339 339 340 341 342 342 342 343 343 343 343 343 343 343 343 343 343 342 340 340 341 341 340 340 341 341 340 337 336 337 338 339 339 338 337 335 334 333 333
330 330 330 330 330 331 331 332 331 332 332 331 331 332 336 340 342 342 341 342 343 343 344 344 344 343 343 343 342 342 342 340 339 339 339 340 342 342 342 342 342 342 343 343 343 344 343 343 343 343 343 342 341 340 339 339 340 340 339 340 340 338 336 336 337 338 338 338 340 339 338 336 334 333
330 330 330 330 330 331 332 332 332 333 333 333 332 331 332 336 340 342 342 342 342 342 343 343 342 342 341 341 341 341 340 338 338 338 340 341 342 342 342 342 342 342 343 342 342 342 343 343 343 344 344 343 343 342 340 339 338 339 340 340 339 337 338 338 338 337 337 339 340 340 338 336 335 334
330 330 331 331 331 331 331 332 332 333 333 333 333 332 331 332 336 341 343 343 342 342 341 341 341 341 340 340 340 339 338 339 339 339 339 340 341 341 341 341 341 341 341 340 340 341 342 342 343 343 344 344 344 343 341 340 339 338 339 340 340 339 340 340 339 338 338 339 340 340 338 337 336 334
331 330 330 330 331 331 331 331 332 333 333 333 333 333 332 331 333 337 340 341 341 342 342 341 341 342 342 341 341 339 339 340 340 339 338 338 339 339 340 340 340 340 340 340 340 341 341 341 341 341 342 343 343 342 341 340 340 339 339 340 340 340 340 339 339 339 338 339 340 340 339 338 336 335
329 330 330 330 331 330 331 331 331 332 333 334 334 334 334 332 332 333 334 335 337 340 341 341 341 342 343 343 343 342 342 342 342 341 338 337 337 337 337 338 339 339 339 340 340 340 341 341 340 340 340 341 341 340 340 341 341 340 339 339 339 339 339 339 339 339 338 339 340 340 339 338 337 336
329 329 329 330 330 330 331 331 331 332 333 334 334 335 335 335 334 334 333 333 333 334 336 338 340 341 341 342 342 342 342 342 342 341 339 337 337 337 337 337 337 338 338 339 338 339 339 339 339 340 340 340 340 340 340 341 341 340 339 338 338 338 339 339 339 339 339 339 340 340 340 339 338 338
327 328 329 330 330 330 331 331 331 331 332 333 334 335 335 336 335 335 335 334 333 334 335 337 338 339 339 340 340 340 341 341 341 341 340 339 338 338 338 339 339 339 339 339 339 338 339 339 340 340 341 341 341 340 341 341 340 339 338 338 338 338 339 339 339 339 338 339 340 340 340 339 339 338
324 326 328 329 329 330 330 331 331 332 332 333 334 334 335 335 335 335 335 335 334 334 335 335 336 338 338 338 338 338 339 340 340 340 340 340 340 340 340 340 340 340 340 341 340 339 340 340 341 341 341 341 340 340 341 340 340 339 339 339 339 339 339 339 339 339 338 339 339 339 339 339 339 339
319 321 323 325 326 327 328 330 330 331 332 332 333 333 334 334 335 335 335 336 335 336 335 335 336 337 337 337 337 338 338 339 339 339 340 340 340 340 340 340 341 341 340 340 340 340 340 341 341 341 341 341 340 340 340 340 340 340 339 339 339 339 339 339 339 339 338 338 338 338 339 338 338 339
316 317 318 320 321 323 325 326 327 328 330 331 331 331 332 333 333 334 334 334 334 335 334 334 335 335 336 336 337 337 337 338 338 338 338 338 338 338 338 338 338 338 339 339 339 339 339 340 341 340 340 340 340 340 340 340 340 340 340 340 340 339 339 339 339 338 338 338 338 338 338 337 337 338
313 313 314 316 317 319 320 321 322 324 325 327 328 329 330 330 330 331 331 332 333 333 333 333 334 335 335 336 336 337 337 337 337 337 337 337 337 337 337 337 337 338 338 339 339 339 339 340 340 340 339 339 339 339 339 340 340 340 340 340 340 339 339 339 339 338 338 338 338 338 338 337 337 337
Wind_Speed
23 24 25 27 28 27 25 24 22 21 20 18 17 18 17 17 16 16 17 18 17 14 13 14 14 13 12 13 14 14 15 15 15 15 14 13 15 16 15 14 14 14 13 12 12 12 12 12 12 12 13 14 14 15 15 16 16 16 16 17 18 18 18 19 19 20 20 20 19 18 18 18 18 18
22 24 26 27 29 28 27 26 24 23 22 20 19 18 18 17 17 17 18 20 18 15 13 13 13 12 10 11 11 12 11 11 13 14 14 14 15 16 15 15 14 14 14 13 12 12 12 12 12 12 13 13 14 15 15 15 15 15 16 16 17 18 18 18 19 19 19 19 18 18 18 18 18 18
23 24 26 28 29 29 29 28 27 25 24 23 21 19 18 17 17 16 17 20 20 17 15 13 12 11 10 9 9 10 10 10 12 14 16 16 15 16 16 15 15 15 15 15 14 13 13 13 13 13 13 13 14 15 15 15 16 15 16 16 16 17 18 18 18 18 19 19 18 18 18 18 18 19
24 25 26 28 30 30 30 30 29 27 26 25 23 21 19 18 17 16 17 20 22 19 16 14 12 11 12 11 10 10 10 10 11 14 16 17 17 17 17 17 16 16 16 16 15 14 14 14 14 14 14 13 13 14 14 14 15 16 16 16 17 17 17 18 18 18 18 18 18 18 18 18 19 19
25 26 27 28 29 29 30 31 31 30 29 27 26 24 22 21 20 19 19 21 23 21 17 15 14 13 14 14 12 11 10 9 10 12 13 15 17 18 18 17 17 17 17 16 15 15 15 14 14 14 13 13 12 12 12 13 14 15 16 16 17 17 17 17 18 18 18 18 18 19 19 19 19 19
26 27 27 28 28 29 30 31 31 31 30 30 30 28 26 24 23 22 21 22 23 22 18 14 13 14 15 16 15 13 12 10 10 11 12 14 16 17 18 18 17 17 17 17 16 16 15 15 15 14 13 13 12 13 13 13 13 14 15 16 17 17 18 18 18 19 19 19 19 19 20 20 20 20
26 27 28 28 28 28 30 31 31 31 30 31 32 31 29 27 25 23 24 24 23 23 20 16 15 14 15 18 18 16 14 13 12 12 12 13 15 16 17 18 18 18 18 18 18 17 17 17 17 16 15 15 14 15 15 15 15 15 15 16 16 17 18 19 19 20 20 20 20 20 21 21 21 22
25 27 29 29 28 28 30 31 31 32 31 31 32 33 32 30 28 26 26 25 24 25 24 20 17 15 15 17 19 19 17 17 16 14 13 13 15 16 17 18 18 18 18 18 18 18 17 17 18 19 18 17 16 16 17 17 17 16 16 16 16 16 17 18 19 20 21 21 21 22 22 22 23 23
24 27 29 30 30 29 30 31 32 33 33 32 31 33 33 32 31 29 28 27 27 27 27 23 19 17 15 16 19 21 20 18 17 16 15 14 15 15 17 18 18 18 18 18 18 18 17 17 19 21 21 21 19 18 18 18 18 18 17 17 16 16 16 17 18 19 20 21 22 23 23 24 24 24
21 24 27 29 30 30 31 31 32 33 33 33 33 33 33 33 32 31 29 29 28 29 29 26 22 20 17 17 19 21 21 19 18 18 18 17 17 16 16 17 18 18 18 18 18 18 17 17 17 19 20 22 22 21 20 19 19 19 19 19 18 18 18 18 18 19 20 21 21 22 23 24 24 25
20 21 24 27 29 30 31 31 31 32 32 33 33 33 33 33 33 32 31 30 30 29 29 29 26 24 21 19 21 21 20 21 21 20 20 21 20 19 18 17 17 17 19 19 19 19 18 17 17 16 18 20 21 22 22 22 21 21 21 21 21 21 20 20 20 20 21 21 22 22 23 24 25 25
20 21 23 26 29 30 31 31 30 30 31 32 34 34 33 33 33 32 31 31 32 32 32 31 29 27 23 23 25 25 23 23 23 22 22 23 22 21 21 19 17 17 18 19 19 20 19 19 18 18 18 18 20 21 22 22 23 23 23 23 23 23 23 23 23 23 23 23 23 23 24 25 26 26
20 20 22 25 28 30 31 31 30 29 28 30 32 34 34 35 34 33 31 31 33 34 34 34 31 28 26 27 28 29 27 26 25 23 23 23 23 22 22 22 20 18 18 19 19 20 20 20 20 20 20 20 19 20 21 22 23 24 25 25 26 26 27 27 27 27 27 27 26 26 26 26 27 28
21 21 22 24 27 29 31 30 30 30 30 31 31 32 34 36 36 35 33 33 33 34 34 34 32 30 30 32 33 32 31 30 28 27 26 26 25 23 24 25 23 21 20 20 20 20 20 21 21 21 22 21 20 20 21 21 22 23 24 25 26 26 27 28 29 29 29 29 29 29 28 28 28 29
24 23 23 23 24 27 30 31 31 32 32 31 30 30 31 33 35 35 35 34 34 34 33 33 32 32 35 37 36 35 34 32 32 32 31 29 28 26 26 26 25 24 22 22 22 21 20 20 22 23 23 22 22 22 22 22 22 23 23 24 24 25 26 27 28 29 30 30 31 31 31 31 31 31
24 25 25 24 23 24 27 29 31 32 32 31 31 30 30 31 32 32 33 34 35 35 35 35 35 37 39 39 38 37 35 34 33 32 32 31 30 29 29 29 28 26 24 23 23 24 22 21 23 24 24 24 23 24 24 23 23 24 24 24 25 25 26 27 27 28 29 29 30 31 31 32 32 33
24 25 26 25 25 25 26 27 28 31 32 32 32 33 32 32 31 31 32 34 35 37 38 38 39 40 39 39 38 36 34 33 32 32 32 31 31 31 32 31 29 27 25 25 25 26 25 23 24 25 25 25 25 25 25 24 25 26 27 28 28 29 29 29 29 29 29 29 30 30 31 31 32 33
24 25 26 25 25 26 27 28 29 30 31 31 31 32 33 33 33 33 33 34 35 36 38 40 41 41 40 39 38 36 34 33 32 32 32 31 30 31 32 31 29 28 27 27 26 27 28 26 26 28 27 26 27 27 27 27 28 29 30 31 31 31 31 31 31 32 32 32 32 33 33 33 33 33
22 24 25 26 25 25 27 28 29 30 30 30 29 31 33 34 34 35 35 35 35 36 37 38 39 39 38 37 37 36 35 34 34 33 31 29 29 29 30 30 30 30 30 28 27 29 31 29 29 30 29 29 30 30 30 30 30 30 31 31 31 31 31 31 31 32 33 33 34 35 35 35 35 35
22 22 24 25 26 27 29 29 29 29 28 27 28 30 33 34 35 35 35 35 36 35 34 34 35 35 35 35 35 34 33 34 34 32 31 30 29 28 29 30 31 32 32 31 29 30 31 31 31 33 32 32 33 33 32 31 30 30 30 30 30 31 31 31 31 32 32 33 33 34 34 35 35 36
22 22 23 24 25 27 28 29 29 29 27 27 29 31 33 34 34 35 35 35 36 35 34 33 34 34 34 34 34 34 33 33 32 31 32 33 32 31 32 32 32 33 33 33 31 31 33 32 33 34 34 33 34 34 32 32 30 30 30 30 30 30 30 30 30 30 30 30 31 32 32 33 34 34
22 22 22 23 24 25 26 26 25 25 24 26 30 32 32 33 34 35 35 35 35 34 34 34 34 34 34 34 34 33 33 32 31 31 33 34 34 35 36 36 36 35 36 36 34 34 35 34 32 33 34 33 34 33 32 31 30 29 29 29 29 29 29 29 29 29 29 30 30 31 31 32 32 33
23 23 23 23 23 24 24 23 22 22 22 26 29 29 29 31 34 36 35 34 34 33 33 33 33 33 35 35 34 33 31 30 30 31 31 32 32 33 35 36 36 37 39 39 35 34 35 33 30 29 29 30 32 32 31 31 30 30 30 30 30 30 29 29 30 30 31 31 32 32 33 33 34 35
23 24 24 24 23 22 21 21 21 22 24 27 28 26 26 29 33 34 34 35 35 33 32 32 33 34 35 36 36 34 31 30 30 30 29 30 31 32 34 36 37 38 39 36 32 30 31 29 27 26 25 27 31 33 32 32 31 31 30 30 30 29 29 29 30 30 30 31 31 32 33 33 33 35
24 24 24 24 24 23 22 21 20 21 22 24 25 25 26 29 31 31 31 33 33 32 31 31 32 33 34 34 34 34 33 33 32 31 31 32 33 33 34 36 38 37 36 33 30 28 28 28 27 26 26 28 32 34 34 33 33 32 30 30 30 30 29 29 30 30 30 30 31 31 31 31 32 33
23 24 24 23 22 22 21 22 22 22 22 22 21 22 24 27 28 28 29 30 30 30 30 30 30 31 32 33 32 32 32 33 32 32 33 34 35 33 33 35 36 35 33 31 29 26 26 27 27 27 27 29 32 34 34 34 34 33 31 31 30 30 29 29 30 30 30 30 31 31 31 32 32 33
22 23 23 23 22 21 21 22 24 24 24 23 22 22 23 24 23 23 26 28 28 29 29 30 31 33 33 33 33 33 32 32 32 31 31 32 33 33 32 33 34 32 30 29 28 25 24 26 28 28 29 29 30 32 33 34 36 35 33 33 31 30 29 29 30 31 31 31 32 32 32 33 33 34
21 22 22 22 22 22 22 23 24 25 25 24 23 23 23 23 22 21 23 25 26 27 28 29 32 33 32 33 35 34 33 33 32 30 29 31 32 32 32 30 28 28 28 27 25 23 24 26 28 29 29 29 29 31 33 34 35 34 32 32 31 30 29 29 30 31 31 31 32 32 33 34 34 34
21 22 21 19 18 19 21 23 25 25 25 24 23 23 23 23 22 21 22 23 24 26 28 30 31 31 31 32 32 32 32 32 31 29 28 29 30 30 29 27 24 24 25 24 23 23 24 26 28 28 29 28 29 30 31 31 32 30 28 28 30 30 29 29 30 30 30 30 31 31 33 34 34 34
22 23 22 19 17 16 18 21 23 24 24 24 24 23 24 24 23 22 23 24 25 27 29 30 31 30 29 28 28 29 30 29 28 26 26 26 27 27 25 23 22 22 23 24 25 25 26 27 26 26 27 27 27 27 27 27 29 28 26 26 28 30 29 28 28 28 28 29 30 32 33 34 34 34
22 24 24 22 20 18 18 19 21 23 23 24 25 26 26 26 26 25 25 26 27 28 29 30 29 28 27 26 26 27 28 28 26 25 23 23 24 24 23 23 24 25 25 26 26 25 24 24 23 23 24 25 25 26 26 26 28 28 26 25 27 29 29 27 26 26 27 28 30 32 33 34 34 34
22 24 25 25 23 21 20 20 21 23 23 23 25 26 27 28 27 25 25 26 29 30 30 29 28 27 27 27 27 26 25 24 23 22 21 21 21 21 21 23 25 26 26 25 23 21 20 19 20 21 22 24 25 26 25 25 26 26 26 25 26 28 28 26 25 26 26 27 30 32 33 33 33 33
21 23 25 26 25 23 22 21 21 21 22 22 22 24 26 27 27 25 25 26 28 29 30 29 27 26 26 26 26 24 24 23 22 22 21 21 21 19 19 21 24 24 23 22 20 18 18 18 18 20 21 23 24 25 24 24 25 25 25 25 24 26 27 25 24 25 25 25 29 32 34 34 33 32
22 22 23 24 24 23 23 23 22 21 20 20 20 20 22 24 26 25 24 25 26 27 28 27 26 25 25 25 24 24 24 23 23 22 22 20 19 18 19 21 23 23 22 22 20 18 18 18 18 19 21 23 24 25 25 24 25 25 25 24 23 25 26 25 24 24 25 25 27 31 35 36 34 32
22 22 22 23 23 22 22 23 22 21 20 20 19 19 19 21 23 24 24 24 24 26 27 28 28 28 28 28 26 25 24 24 23 22 20 19 19 19 20 22 24 23 22 22 21 19 18 19 20 21 22 23 24 26 27 26 24 24 24 24 23 25 26 25 24 24 25 24 23 26 32 37 36 33
22 22 23 23 22 22 22 22 22 22 21 19 19 19 19 19 21 22 23 23 23 24 26 27 27 28 28 29 29 27 25 24 23 21 21 20 21 22 23 24 25 24 23 24 23 21 20 21 22 22 21 21 21 24 27 26 23 23 24 24 24 25 26 26 25 25 25 24 22 24 30 35 38 36
22 23 24 23 22 22 23 23 23 23 21 20 20 20 20 20 20 21 21 20 19 21 22 23 23 22 22 23 25 25 24 22 22 22 21 22 23 24 25 27 27 26 26 26 25 24 24 24 24 23 21 20 22 26 29 27 24 23 24 25 26 26 26 26 27 27 26 25 25 26 28 32 37 37
19 21 22 23 23 23 24 24 23 22 21 21 21 21 21 21 20 20 20 19 20 21 22 22 21 20 19 19 20 21 22 22 23 23 23 23 25 26 27 28 28 28 28 27 26 26 26 25 26 25 22 21 24 28 28 27 24 23 23 24 27 28 28 27 28 29 28 28 27 27 28 30 34 35
15 16 17 18 19 20 21 21 21 19 19 19 19 20 21 21 21 21 20 20 21 22 23 23 22 21 21 21 21 22 23 24 25 25 25 25 26 27 28 28 29 29 30 29 29 29 28 27 27 26 24 23 25 26 25 24 23 23 23 23 27 29 28 27 27 29 30 29 29 30 30 31 32 33
14 14 14 14 15 16 17 17 18 18 18 18 18 18 18 19 21 21 20 20 21 22 22 22 22 23 24 24 24 24 25 26 27 28 27 27 27 27 28 29 30 30 30 30 31 31 31 30 28 25 22 22 23 23 22 23 25 26 25 23 24 25 26 25 25 27 29 29 29 30 32 33 33 33
10 11 13 14 15 16 16 17 18 18 19 18 18 17 17 18 19 19 19 20 20 21 21 21 22 24 25 25 25 24 24 26 27 28 28 27 27 27 27 28 28 29 30 31 32 32 31 29 25 21 19 21 21 21 22 25 28 29 27 24 22 22 24 25 25 25 27 27 27 29 32 33 33 33
7 7 9 11 13 14 15 16 17 19 20 20 20 20 20 20 20 20 21 21 21 21 22 23 24 25 25 24 24 24 24 25 27 27 27 27 26 27 27 27 28 29 29 30 31 31 29 26 22 18 19 21 22 21 23 27 30 29 28 26 24 23 24 25 25 24 24 24 25 27 29 30 30 31
12 10 8 8 10 12 14 15 16 17 19 20 20 21 21 21 21 20 20 20 20 21 22 24 25 26 24 24 24 24 25 25 25 26 26 26 25 26 26 26 27 27 28 29 30 29 27 24 22 20 21 23 24 23 25 28 29 28 28 28 27 25 24 24 24 24 24 23 24 25 26 26 26 28
15 14 12 10 9 9 10 12 13 15 16 18 18 19 20 21 21 22 22 22 22 23 24 25 24 24 24 24 25 24 24 25 25 24 24 23 22 22 22 22 21 22 23 24 26 26 25 24 23 22 22 24 24 24 26 28 29 28 29 29 28 27 26 25 25 25 25 25 25 25 24 24 24 25
20 18 16 13 12 11 9 9 10 10 12 14 15 16 17 18 18 20 21 22 22 22 24 26 25 24 24 24 25 25 25 25 24 23 22 20 17 15 15 16 16 17 17 18 19 20 21 21 21 22 23 24 25 25 26 27 28 29 29 30 29 28 26 24 24 25 26 26 25 23 22 22 22 23
Wind_Direction
227 226 226 226 223 220 220 223 225 226 227 230 236 243 248 251 257 265 272 275 273 269 267 263 257 255 258 260 258 254 251 247 244 243 240 236 234 235 236 239 243 248 251 251 248 244 243 246 251 254 256 257 257 257 257 257 258 257 257 257 257 257 255 253 252 252 253 254 255 256 257 257 257 256
228 230 229 229 226 223 223 224 226 228 228 229 234 241 244 244 248 256 267 273 271 269 269 265 258 258 260 258 253 250 249 246 244 243 243 241 238 236 235 236 238 242 244 242 242 243 245 250 255 259 261 260 257 256 256 258 259 259 258 257 257 257 257 255 253 252 253 254 254 254 254 254 254 254
228 231 232 231 229 226 226 227 228 230 230 230 234 239 241 241 245 251 261 268 266 263 267 266 258 257 260 255 247 245 249 251 249 248 248 245 241 238 236 233 232 235 238 240 242 246 249 254 259 262 263 262 258 256 256 257 258 258 258 257 257 257 257 255 254 254 254 255 255 254 253 252 251 252
229 233 234 233 231 229 229 230 231 233 233 233 235 238 239 239 242 246 252 259 260 258 263 267 259 253 256 254 246 245 250 253 253 252 250 247 242 239 238 236 232 230 232 235 239 244 248 253 259 261 261 258 255 255 255 257 258 258 257 257 257 257 257 255 255 254 254 254 254 254 252 250 250 250
232 235 234 234 233 233 233 233 235 236 237 237 236 236 237 237 238 241 246 253 257 254 254 260 259 254 255 252 247 250 252 254 260 260 255 250 245 241 240 239 236 232 231 233 236 240 246 252 255 255 254 251 250 252 254 256 258 259 258 257 257 257 256 255 254 253 253 253 253 253 252 250 250 251
233 235 236 235 235 236 237 237 238 240 240 239 238 236 237 238 238 240 245 250 253 250 245 246 252 257 259 255 250 253 255 257 266 267 260 254 250 247 244 243 241 237 236 237 238 240 245 249 249 246 246 248 251 254 257 259 262 263 262 260 258 257 256 255 254 253 253 254 253 253 252 251 251 252
233 234 236 237 238 239 241 241 241 242 243 242 239 238 238 239 240 242 246 249 251 251 244 235 238 253 262 259 253 251 252 255 260 264 262 256 251 249 247 245 243 241 241 243 243 243 246 248 248 245 246 249 253 256 258 261 264 265 264 263 260 258 256 255 254 254 254 255 255 254 254 253 253 253
236 235 235 236 238 240 243 244 243 243 244 243 240 238 238 240 241 243 245 248 250 250 246 235 232 245 259 259 252 248 251 254 255 259 261 258 253 250 249 248 246 244 244 246 247 247 248 250 249 248 248 249 252 254 257 259 260 261 261 262 262 260 259 257 256 256 256 256 257 257 256 255 255 255
240 239 237 235 236 239 242 245 245 244 244 244 242 239 239 240 242 243 245 246 246 246 246 241 235 239 252 260 254 248 251 256 255 255 258 259 256 252 250 250 249 248 246 245 245 248 252 253 252 251 250 251 251 252 255 257 257 256 257 258 261 261 261 260 259 258 258 259 259 259 259 259 258 258
246 244 242 239 237 237 240 243 244 243 243 244 243 241 240 240 241 243 244 244 244 245 246 245 241 238 244 257 257 250 251 256 256 255 257 258 258 256 253 251 251 250 249 247 245 247 252 256 255 253 253 253 253 251 252 255 256 256 257 258 260 261 261 261 260 260 260 260 261 262 262 262 262 262
255 250 245 242 240 239 239 241 243 243 243 244 244 242 242 241 242 243 244 242 242 242 242 243 243 240 240 252 257 252 251 256 257 257 257 256 257 258 258 256 254 253 252 251 249 249 251 254 254 254 254 254 253 252 253 255 257 259 260 261 262 263 263 263 263 263 263 263 264 265 265 265 265 264
259 254 247 242 241 241 240 240 242 244 246 247 246 244 242 242 242 243 244 242 239 239 241 243 244 243 244 251 255 253 252 254 255 256 258 258 257 256 258 260 261 259 256 254 253 252 253 253 253 254 257 257 255 254 255 258 260 262 263 264 265 265 266 266 266 266 267 267 268 269 269 269 268 267
259 256 251 245 242 243 243 242 243 246 249 251 251 248 244 241 241 241 241 241 239 238 241 244 245 244 246 250 253 253 252 252 253 256 260 260 258 256 257 258 259 258 256 255 255 255 255 256 256 257 259 260 258 257 257 258 260 262 264 265 265 266 266 266 266 267 267 267 268 269 270 270 270 270
258 257 254 249 245 244 246 247 247 248 248 250 251 251 248 244 242 241 240 240 240 239 241 243 243 243 246 249 250 252 253 253 255 256 258 259 259 258 255 255 254 254 255 255 256 258 259 260 260 261 262 262 260 259 259 260 261 263 264 266 267 267 266 265 265 265 265 265 264 265 265 266 267 267
259 259 258 255 250 247 246 248 249 250 250 250 251 253 252 249 245 243 243 243 243 242 243 243 243 243 247 249 251 252 254 255 255 256 257 258 260 258 254 252 252 252 252 254 257 260 261 260 261 262 262 261 261 261 262 263 264 265 267 268 269 269 269 268 267 265 264 264 264 264 264 264 263 263
260 259 259 260 257 252 249 248 249 251 252 253 253 253 253 252 250 248 247 248 248 246 245 245 245 246 249 251 253 253 254 255 256 256 256 256 256 256 253 250 250 250 251 253 257 260 261 260 259 260 259 260 261 263 265 266 267 268 269 271 271 271 271 270 269 268 267 266 266 266 267 266 266 264
264 263 261 260 259 258 255 252 251 252 253 252 252 251 251 251 253 253 251 249 249 248 247 247 248 248 250 252 254 254 256 258 258 258 257 254 252 252 250 249 248 250 252 253 256 260 261 260 259 260 262 264 266 268 269 270 270 271 272 273 273 272 271 269 268 267 266 266 266 266 267 268 268 267
267 267 266 263 261 260 258 256 254 254 255 255 254 253 252 252 253 253 252 250 248 247 247 248 249 249 251 253 255 257 259 260 260 260 260 257 253 251 250 249 249 249 251 252 254 258 259 259 260 263 266 269 271 273 273 273 273 273 273 274 274 273 272 270 269 267 266 265 265 265 266 266 266 266
266 266 266 265 263 261 259 258 256 256 257 259 258 256 255 254 254 254 254 253 251 248 246 247 250 252 254 257 260 261 262 261 261 262 261 257 252 251 250 248 246 245 246 247 249 252 256 259 262 266 270 273 275 275 275 275 275 275 274 274 273 272 272 271 270 269 268 267 266 266 266 266 266 265
267 265 264 264 264 264 263 261 259 258 257 258 259 258 255 254 253 253 253 254 254 253 251 251 254 256 258 260 261 261 261 261 261 260 256 250 247 247 248 246 244 244 245 245 247 251 256 261 265 269 273 275 276 276 275 275 275 275 274 274 273 273 272 272 271 270 269 268 268 267 267 267 267 267
271 267 265 264 264 264 265 265 264 262 259 258 260 261 259 256 254 253 253 253 254 256 256 256 258 259 259 259 259 258 258 257 257 254 250 246 245 247 249 249 248 247 248 249 251 255 259 263 267 271 274 274 274 274 274 274 274 274 273 273 273 273 273 272 271 271 270 270 269 269 268 268 268 268
280 274 269 267 266 266 266 266 266 265 261 258 259 260 261 261 260 258 256 255 255 256 256 257 259 261 261 261 259 257 255 253 251 249 247 246 245 247 250 251 252 253 253 253 254 258 262 263 265 269 273 273 272 271 272 273 273 273 273 272 272 272 272 271 271 270 270 270 270 270 270 270 270 270
285 282 276 271 268 268 267 266 264 262 257 254 254 257 260 262 262 261 260 259 258 257 257 257 259 262 263 264 263 259 254 252 250 249 249 249 248 247 249 251 252 253 254 254 254 257 261 263 264 266 269 272 273 273 273 273 273 272 273 273 273 273 273 273 272 272 272 272 272 272 272 271 272 272
286 285 282 277 272 270 268 265 261 258 255 252 252 256 260 261 261 261 262 262 260 259 258 258 259 260 262 265 266 263 258 255 254 251 252 253 251 250 250 250 250 250 253 255 255 256 261 264 265 264 265 270 274 276 276 276 276 275 276 277 279 280 280 280 279 278 278 277 276 276 275 274 275 274
286 285 284 283 280 277 274 271 266 262 261 258 254 253 257 259 260 260 261 262 261 259 259 259 260 261 262 263 263 260 257 256 256 255 256 257 255 253 253 251 248 249 251 254 254 256 261 265 266 268 268 269 272 276 279 279 279 279 281 282 283 284 285 285 284 282 282 282 280 279 278 277 277 276
288 287 286 284 284 284 283 280 275 269 267 264 259 255 256 258 258 256 255 256 258 258 258 259 259 260 261 261 260 257 255 256 256 257 258 257 254 253 253 252 251 252 255 257 257 258 262 265 268 271 271 271 274 278 280 280 281 282 283 284 285 286 285 285 285 285 285 284 283 283 283 282 281 278
288 288 286 284 282 280 279 278 276 272 269 266 262 260 259 257 256 252 248 248 251 254 255 256 257 258 258 258 257 255 255 257 258 260 260 259 256 256 256 256 256 257 258 260 261 261 263 265 268 270 271 272 274 277 278 280 282 284 285 286 286 285 285 286 286 285 286 286 287 289 289 287 285 283
283 285 286 288 287 283 280 277 275 273 271 267 265 263 261 258 254 249 244 242 244 247 251 253 255 257 256 255 255 255 256 258 261 262 262 261 259 258 257 255 253 254 256 259 262 264 265 266 267 270 271 271 270 272 276 279 282 284 286 287 287 286 287 287 286 287 289 291 292 292 291 289 288 287
275 279 283 288 291 290 287 284 281 278 273 269 266 263 260 257 252 247 244 242 239 241 246 249 252 255 255 255 255 256 256 258 261 262 262 260 259 258 258 256 254 253 257 262 266 266 265 265 267 269 270 268 267 270 274 277 280 283 284 285 287 289 288 287 289 292 294 294 294 293 292 291 290 289
269 272 276 280 284 288 288 288 287 284 279 271 266 261 257 255 252 246 244 243 241 241 243 247 250 254 257 258 257 256 256 257 259 260 259 258 256 254 255 259 262 261 262 266 267 266 264 265 266 266 266 265 265 267 270 273 276 279 280 281 285 287 287 289 293 296 297 297 296 295 293 293 292 290
266 268 271 273 276 280 283 283 283 283 280 272 266 261 256 255 256 252 246 243 243 243 246 249 251 254 257 258 257 257 258 258 259 257 255 253 251 248 250 258 265 267 267 266 265 264 262 261 261 261 263 264 265 267 269 271 273 276 277 277 279 283 288 293 297 299 300 301 298 295 294 295 295 295
268 268 270 272 275 277 279 279 280 281 281 277 272 267 261 258 260 259 252 245 244 246 248 251 252 254 255 256 257 257 256 254 251 247 244 245 247 248 250 255 261 264 264 262 259 256 254 254 255 258 261 264 266 268 269 268 269 272 274 276 278 283 289 293 296 298 300 299 296 294 294 294 297 299
278 272 271 273 277 279 278 276 278 282 286 288 285 278 269 262 260 259 256 252 251 250 250 251 253 253 253 254 254 253 248 242 239 238 239 243 246 247 248 250 254 257 259 258 256 252 249 249 251 255 260 264 266 266 264 262 263 267 271 274 276 280 286 291 293 295 297 297 295 294 293 294 298 302
288 284 279 277 278 281 280 277 277 282 289 295 296 292 281 269 262 259 259 258 255 252 250 251 253 252 248 246 246 244 240 237 237 240 242 243 241 240 240 243 247 251 254 256 255 250 248 249 251 254 258 261 262 260 258 259 263 268 272 272 273 278 284 288 289 290 293 295 295 294 294 296 300 305
289 288 285 282 281 281 281 280 279 282 287 292 296 297 291 278 266 259 256 256 255 251 250 251 252 252 249 245 241 238 236 237 238 239 238 235 234 235 237 241 245 249 253 256 255 251 248 247 249 253 255 255 256 257 256 257 262 270 273 273 275 280 283 285 285 287 290 293 293 293 295 298 301 306
287 285 284 283 281 278 277 278 279 281 283 285 288 290 289 283 273 264 258 258 257 254 251 251 254 256 254 249 243 239 237 235 234 233 231 230 233 237 240 242 246 250 253 255 255 253 250 248 250 253 255 255 259 262 262 261 265 270 273 274 277 280 281 283 286 287 289 292 293 292 295 298 301 305
287 284 282 280 278 276 275 276 278 278 279 279 280 281 281 279 275 269 265 262 259 254 249 248 251 256 258 254 246 240 236 234 235 236 235 235 237 239 242 245 248 251 254 256 256 256 255 255 255 254 253 256 260 263 267 271 273 272 273 276 278 278 279 283 286 288 290 293 294 293 295 297 299 303
289 287 285 282 279 277 276 277 279 280 280 278 277 277 276 273 270 268 266 261 257 254 250 248 250 255 259 257 247 238 236 237 241 243 243 242 243 244 246 249 251 254 256 258 259 259 259 259 258 256 253 255 259 264 271 279 279 273 273 276 277 277 279 284 288 290 292 293 292 293 294 294 296 302
294 294 294 291 288 284 283 284 286 286 285 282 278 276 275 272 268 267 267 263 257 255 254 251 249 251 256 258 253 249 248 249 252 254 254 252 252 252 253 254 256 258 260 261 261 261 261 260 260 262 262 262 264 271 277 281 277 272 272 275 278 282 286 288 290 291 290 289 291 294 294 294 295 300
293 295 296 294 290 287 285 285 285 284 283 280 276 273 273 273 271 269 270 268 263 263 264 261 255 252 255 259 260 260 260 260 260 260 260 260 260 261 261 262 261 261 261 262 261 261 262 262 265 269 270 266 267 273 275 274 272 273 276 279 284 289 290 289 288 288 287 288 291 294 294 295 298 300
288 286 288 291 292 289 284 282 280 278 277 276 273 268 266 266 268 268 269 269 267 266 269 268 263 260 260 261 261 262 264 264 262 261 260 260 261 263 263 264 264 263 262 262 262 262 265 269 272 271 265 261 264 268 269 269 272 277 281 285 286 286 286 286 287 286 285 286 289 290 292 296 299 301
328 302 288 287 289 289 287 285 282 279 278 276 275 272 267 263 263 264 265 265 265 263 264 266 268 268 266 264 263 263 262 261 261 261 261 260 261 261 262 262 263 263 265 266 267 268 270 273 273 266 259 261 264 264 264 268 274 279 283 285 284 283 283 284 286 287 286 284 284 285 290 295 298 300
4 356 338 312 300 294 290 288 285 284 282 279 276 274 271 268 267 267 268 267 266 266 266 267 269 271 270 267 264 262 260 260 261 263 264 265 264 263 263 263 263 264 265 266 268 270 271 272 270 265 262 263 263 263 265 270 274 278 280 282 284 284 283 284 287 289 288 285 281 282 286 290 293 296
7 5 2 353 339 324 311 303 298 293 290 286 282 279 278 277 276 277 277 276 274 272 271 271 271 272 272 270 266 262 261 261 262 262 263 265 266 266 266 267 267 269 270 270 271 272 273 274 273 270 266 263 263 265 267 270 273 276 278 280 283 284 284 285 287 287 286 285 283 282 285 288 290 294
358 358 360 1 359 357 351 341 330 319 307 297 291 289 287 285 281 277 272 268 267 266 267 268 267 265 263 260 259 259 260 260 260 260 258 257 258 263 268 270 271 273 275 277 279 279 278 276 275 272 268 266 265 265 267 270 273 276 278 279 281 282 284 286 287 287 286 285 284 283 285 290 295 298